BGA172G LFAQ-LFRZ

Flight info

Callsign BGA172G
Flight time 1h 1m
Altitude 18000
Route BANTI H20 OKRUZ/N0338F190 H20 LGL/N0384F270 UT176 KURIS UN482 GODAN
Aircraft A337/H-SDE3GHIJ2J3J5M1RVWXY/LB2D1

Departure

Time 2026-04-27 23:33
Airport Albert Bray airport (LFAQ)

Arrival

Time 2026-04-28 00:35
Airport Saint-Nazaire-Montoir Airport (LFRZ)
Time Latitude Longitude Altitude Speed Heading
2026-04-27 23:13 49.97319 2.69806 350 ft 0 kts 355°
2026-04-27 23:25 49.97310 2.69808 374 ft 4 kts 352°
2026-04-27 23:25 49.97284 2.69817 376 ft 4 kts 331°
2026-04-27 23:25 49.97265 2.69843 374 ft 4 kts 291°
2026-04-27 23:25 49.97262 2.69864 376 ft 0 kts 265°
2026-04-27 23:27 49.97262 2.69857 374 ft 2 kts 264°
2026-04-27 23:27 49.97244 2.69827 376 ft 5 kts 205°
2026-04-27 23:28 49.97193 2.69823 374 ft 9 kts 175°
2026-04-27 23:28 49.97189 2.69824 374 ft 0 kts 175°
2026-04-27 23:29 49.97125 2.69832 377 ft 18 kts 175°
2026-04-27 23:29 49.97103 2.69834 375 ft 1 kts 177°
2026-04-27 23:30 49.97035 2.69777 376 ft 13 kts 240°
2026-04-27 23:30 49.97024 2.69607 374 ft 20 kts 268°
2026-04-27 23:30 49.97006 2.69319 375 ft 29 kts 264°
2026-04-27 23:30 49.96988 2.69013 376 ft 29 kts 265°
2026-04-27 23:31 49.96973 2.68699 376 ft 29 kts 266°
2026-04-27 23:31 49.96959 2.68381 375 ft 30 kts 265°
2026-04-27 23:31 49.96943 2.68060 379 ft 30 kts 266°
2026-04-27 23:31 49.96952 2.67915 376 ft 1 kts 239°
2026-04-27 23:32 49.96941 2.67925 374 ft 2 kts 134°
2026-04-27 23:32 49.96941 2.67970 378 ft 0 kts 86°
2026-04-27 23:32 49.96943 2.68025 378 ft 22 kts 86°
2026-04-27 23:32 49.96971 2.68597 375 ft 84 kts 85°
2026-04-27 23:33 49.97034 2.69791 378 ft 137 kts 85°
2026-04-27 23:33 49.97121 2.71432 755 ft 154 kts 83°
2026-04-27 23:33 49.97207 2.73168 1319 ft 164 kts 80°
2026-04-27 23:33 49.97301 2.74937 2008 ft 175 kts 81°
2026-04-27 23:34 49.97415 2.76981 2242 ft 204 kts 81°
2026-04-27 23:34 49.97534 2.79333 2471 ft 234 kts 86°
2026-04-27 23:34 49.97138 2.81892 2956 ft 254 kts 116°
2026-04-27 23:34 49.95916 2.83915 3635 ft 265 kts 145°
2026-04-27 23:35 49.94162 2.84857 4376 ft 272 kts 174°
2026-04-27 23:35 49.92303 2.84451 5203 ft 272 kts 203°
2026-04-27 23:35 49.90758 2.82794 5961 ft 272 kts 231°
2026-04-27 23:35 49.89860 2.80244 6714 ft 271 kts 254°
2026-04-27 23:36 49.89447 2.77408 7528 ft 269 kts 261°
2026-04-27 23:36 49.89226 2.74522 8300 ft 271 kts 269°
2026-04-27 23:36 49.89198 2.71581 9093 ft 273 kts 271°
2026-04-27 23:36 49.89232 2.68626 9789 ft 276 kts 272°
2026-04-27 23:37 49.89309 2.65642 10119 ft 278 kts 273°
2026-04-27 23:37 49.89411 2.62657 10178 ft 279 kts 274°
2026-04-27 23:37 49.89528 2.59535 10168 ft 300 kts 274°
2026-04-27 23:37 49.89648 2.56344 10169 ft 289 kts 274°
2026-04-27 23:38 49.89758 2.53260 10183 ft 293 kts 274°
2026-04-27 23:38 49.89873 2.50001 10429 ft 309 kts 273°
2026-04-27 23:38 49.89987 2.46645 11025 ft 314 kts 273°
2026-04-27 23:38 49.90098 2.43260 11722 ft 315 kts 273°
2026-04-27 23:39 49.90207 2.39869 12419 ft 316 kts 273°
2026-04-27 23:39 49.90279 2.37613 12872 ft 316 kts 272°
2026-04-27 23:39 49.90423 2.33034 13782 ft 319 kts 272°
2026-04-27 23:39 49.90529 2.29593 14372 ft 320 kts 272°
2026-04-27 23:40 49.90636 2.26121 14912 ft 323 kts 272°
2026-04-27 23:40 49.90743 2.22634 15463 ft 325 kts 272°
2026-04-27 23:40 49.90850 2.19110 15995 ft 328 kts 272°
2026-04-27 23:40 49.90957 2.15560 16547 ft 330 kts 272°
2026-04-27 23:41 49.91062 2.12035 17075 ft 333 kts 272°
2026-04-27 23:41 49.91167 2.08446 17600 ft 335 kts 272°
2026-04-27 23:41 49.91274 2.04813 18126 ft 337 kts 272°
2026-04-27 23:41 49.91379 2.01160 18619 ft 339 kts 272°
2026-04-27 23:42 49.91483 1.97489 19068 ft 341 kts 272°
2026-04-27 23:42 49.91588 1.93799 19508 ft 343 kts 272°
2026-04-27 23:42 49.91692 1.90083 19957 ft 345 kts 272°
2026-04-27 23:42 49.91794 1.86353 20388 ft 347 kts 272°
2026-04-27 23:43 49.91896 1.82601 20812 ft 349 kts 272°
2026-04-27 23:43 49.91963 1.80105 21084 ft 350 kts 272°
2026-04-27 23:43 49.92098 1.75024 21612 ft 353 kts 272°
2026-04-27 23:43 49.92199 1.71215 22026 ft 355 kts 272°
2026-04-27 23:44 49.92299 1.67373 22416 ft 357 kts 272°
2026-04-27 23:44 49.92396 1.63518 22821 ft 358 kts 272°
2026-04-27 23:44 49.92458 1.59634 23204 ft 360 kts 271°
2026-04-27 23:44 49.92486 1.55747 23574 ft 362 kts 271°
2026-04-27 23:45 49.92496 1.51829 23919 ft 364 kts 271°
2026-04-27 23:45 49.92501 1.47885 24226 ft 365 kts 270°
2026-04-27 23:45 49.92504 1.43989 24549 ft 366 kts 270°
2026-04-27 23:45 49.92508 1.40049 24946 ft 364 kts 270°
2026-04-27 23:46 49.92514 1.36139 25332 ft 362 kts 270°
2026-04-27 23:46 49.92521 1.32211 25597 ft 365 kts 270°
2026-04-27 23:46 49.92359 1.28275 25907 ft 366 kts 262°
2026-04-27 23:46 49.91795 1.24427 26312 ft 366 kts 253°
2026-04-27 23:47 49.90785 1.20820 26707 ft 366 kts 242°
2026-04-27 23:47 49.89321 1.17585 27070 ft 368 kts 231°
2026-04-27 23:47 49.87437 1.14855 27189 ft 374 kts 220°
2026-04-27 23:47 49.85180 1.12781 27199 ft 384 kts 209°
2026-04-27 23:48 49.82704 1.11137 27196 ft 388 kts 205°
2026-04-27 23:48 49.81028 1.10153 27198 ft 389 kts 204°
2026-04-27 23:48 49.78472 1.08746 27200 ft 390 kts 203°
2026-04-27 23:48 49.75076 1.06927 27197 ft 390 kts 203°
2026-04-27 23:49 49.73351 1.05996 27203 ft 389 kts 203°
2026-04-27 23:49 49.69965 1.04137 27187 ft 388 kts 204°
2026-04-27 23:49 49.67431 1.02721 27189 ft 387 kts 204°
2026-04-27 23:49 49.65719 1.01756 27204 ft 387 kts 204°
2026-04-27 23:50 49.63192 1.00324 27204 ft 387 kts 204°
2026-04-27 23:50 49.59842 0.98418 27199 ft 387 kts 204°
2026-04-27 23:50 49.57316 0.96978 27197 ft 387 kts 204°
2026-04-27 23:50 49.54786 0.95538 27186 ft 387 kts 204°
2026-04-27 23:51 49.52260 0.94103 27183 ft 387 kts 204°
2026-04-27 23:51 49.49733 0.92669 27192 ft 387 kts 203°
2026-04-27 23:51 49.47206 0.91238 27190 ft 388 kts 203°
2026-04-27 23:51 49.45527 0.90289 27193 ft 388 kts 203°
2026-04-27 23:52 49.42992 0.88858 27182 ft 388 kts 203°
2026-04-27 23:52 49.40451 0.87423 27191 ft 389 kts 203°
2026-04-27 23:52 49.37899 0.85985 27189 ft 390 kts 203°
2026-04-27 23:52 49.35343 0.84546 27191 ft 391 kts 203°
2026-04-27 23:53 49.32798 0.83115 27185 ft 391 kts 203°
2026-04-27 23:53 49.30238 0.81678 27183 ft 390 kts 203°
2026-04-27 23:53 49.27690 0.80248 27180 ft 390 kts 202°
2026-04-27 23:53 49.25138 0.78817 27179 ft 390 kts 202°
2026-04-27 23:54 49.22590 0.77390 27181 ft 390 kts 202°
2026-04-27 23:54 49.20034 0.75960 27181 ft 390 kts 202°
2026-04-27 23:54 49.17493 0.74540 27182 ft 390 kts 202°
2026-04-27 23:54 49.14937 0.73113 27179 ft 390 kts 202°
2026-04-27 23:55 49.12386 0.71691 27174 ft 390 kts 202°
2026-04-27 23:55 49.09836 0.70270 27179 ft 390 kts 202°
2026-04-27 23:55 49.07290 0.68850 27163 ft 390 kts 202°
2026-04-27 23:55 49.04748 0.67424 27173 ft 388 kts 202°
2026-04-27 23:56 49.02219 0.66002 27173 ft 387 kts 202°
2026-04-27 23:56 48.99686 0.64576 27173 ft 387 kts 202°
2026-04-27 23:56 48.97196 0.63175 27173 ft 387 kts 202°
2026-04-27 23:56 48.94668 0.61755 27172 ft 387 kts 202°
2026-04-27 23:57 48.92148 0.60341 27172 ft 387 kts 202°
2026-04-27 23:57 48.89613 0.58922 27168 ft 387 kts 202°
2026-04-27 23:57 48.87087 0.57509 27167 ft 387 kts 202°
2026-04-27 23:57 48.84558 0.56096 27167 ft 387 kts 202°
2026-04-27 23:58 48.82041 0.54646 27165 ft 386 kts 206°
2026-04-27 23:58 48.79681 0.52726 27164 ft 383 kts 216°
2026-04-27 23:58 48.77625 0.50193 27169 ft 381 kts 226°
2026-04-27 23:58 48.75781 0.47309 27168 ft 381 kts 229°
2026-04-27 23:59 48.74024 0.44305 27167 ft 381 kts 230°
2026-04-27 23:59 48.72310 0.41239 27162 ft 382 kts 231°
2026-04-27 23:59 48.70604 0.38138 27162 ft 384 kts 231°
2026-04-27 23:59 48.68891 0.35025 27162 ft 385 kts 231°
2026-04-28 00:00 48.67166 0.31911 27168 ft 386 kts 231°
2026-04-28 00:00 48.65435 0.28811 27166 ft 386 kts 231°
2026-04-28 00:00 48.63698 0.25721 27160 ft 384 kts 231°
2026-04-28 00:00 48.61969 0.22662 27161 ft 383 kts 230°
2026-04-28 00:01 48.60236 0.19605 27162 ft 382 kts 230°
2026-04-28 00:01 48.58505 0.16554 27171 ft 382 kts 230°
2026-04-28 00:01 48.56775 0.13496 27172 ft 382 kts 231°
2026-04-28 00:01 48.55079 0.10486 27165 ft 382 kts 231°
2026-04-28 00:02 48.53365 0.07441 27165 ft 382 kts 231°
2026-04-28 00:02 48.51643 0.04379 27164 ft 382 kts 231°
2026-04-28 00:02 48.49923 0.01326 27164 ft 382 kts 231°
2026-04-28 00:02 48.48202 -0.01725 27170 ft 382 kts 230°
2026-04-28 00:03 48.46479 -0.04772 27166 ft 384 kts 230°
2026-04-28 00:03 48.44735 -0.07853 27164 ft 386 kts 230°
2026-04-28 00:03 48.42997 -0.10922 27166 ft 385 kts 230°
2026-04-28 00:03 48.41262 -0.13982 27166 ft 383 kts 230°
2026-04-28 00:04 48.39532 -0.17029 27166 ft 383 kts 230°
2026-04-28 00:04 48.36070 -0.23117 27160 ft 382 kts 230°
2026-04-28 00:04 48.34333 -0.26155 27159 ft 382 kts 230°
2026-04-28 00:05 48.32595 -0.29171 27159 ft 382 kts 230°
2026-04-28 00:05 48.30844 -0.32195 27154 ft 382 kts 230°
2026-04-28 00:05 48.29093 -0.35208 27156 ft 382 kts 230°
2026-04-28 00:05 48.27343 -0.38218 27157 ft 383 kts 230°
2026-04-28 00:06 48.25593 -0.41225 27156 ft 383 kts 230°
2026-04-28 00:06 48.23841 -0.44232 27157 ft 383 kts 230°
2026-04-28 00:06 48.22088 -0.47241 27149 ft 382 kts 230°
2026-04-28 00:06 48.20341 -0.50236 27154 ft 379 kts 230°
2026-04-28 00:07 48.19578 -0.51543 27153 ft 378 kts 230°
2026-04-28 00:07 48.19559 -0.51575 27154 ft 378 kts 230°
2026-04-28 00:07 48.19452 -0.51760 27153 ft 378 kts 230°
2026-04-28 00:07 48.19344 -0.51945 27152 ft 377 kts 230°
2026-04-28 00:08 48.19236 -0.52129 27149 ft 376 kts 230°
2026-04-28 00:08 48.19097 -0.52367 27142 ft 375 kts 230°
2026-04-28 00:08 48.18884 -0.52731 27112 ft 373 kts 229°
2026-04-28 00:08 48.18672 -0.53095 27030 ft 373 kts 230°
2026-04-28 00:09 48.18576 -0.53258 26965 ft 373 kts 230°
2026-04-28 00:09 48.18209 -0.53886 26777 ft 374 kts 230°
2026-04-28 00:09 48.17777 -0.54624 26538 ft 375 kts 230°
2026-04-28 00:09 48.17293 -0.55450 26329 ft 376 kts 230°
2026-04-28 00:10 48.16719 -0.56429 26020 ft 377 kts 230°
2026-04-28 00:10 48.16141 -0.57413 25731 ft 379 kts 230°
2026-04-28 00:10 48.15560 -0.58402 25451 ft 380 kts 230°
2026-04-28 00:10 48.14978 -0.59392 25185 ft 381 kts 230°
2026-04-28 00:11 48.14396 -0.60380 24938 ft 382 kts 230°
2026-04-28 00:11 48.13812 -0.61372 24676 ft 382 kts 230°
2026-04-28 00:11 48.13225 -0.62366 24419 ft 383 kts 230°
2026-04-28 00:11 48.12640 -0.63357 24173 ft 383 kts 230°
2026-04-28 00:12 48.12054 -0.64348 23946 ft 383 kts 230°
2026-04-28 00:12 48.10745 -0.66558 23377 ft 382 kts 230°
2026-04-28 00:12 48.10160 -0.67545 23104 ft 382 kts 230°
2026-04-28 00:12 48.09644 -0.68415 22866 ft 382 kts 230°
2026-04-28 00:13 48.09036 -0.69439 22580 ft 382 kts 230°
2026-04-28 00:13 48.08412 -0.70489 22294 ft 382 kts 230°
2026-04-28 00:13 48.07825 -0.71477 22032 ft 381 kts 229°
2026-04-28 00:13 48.07239 -0.72463 21763 ft 381 kts 229°
2026-04-28 00:14 48.06652 -0.73449 21490 ft 381 kts 229°
2026-04-28 00:14 48.06074 -0.74420 21222 ft 381 kts 229°
2026-04-28 00:14 48.05483 -0.75413 20973 ft 380 kts 229°
2026-04-28 00:14 48.04897 -0.76396 20705 ft 380 kts 229°
2026-04-28 00:15 48.04599 -0.76895 20584 ft 380 kts 229°
2026-04-28 00:15 48.04039 -0.77834 20338 ft 379 kts 229°
2026-04-28 00:15 48.02286 -0.80771 19624 ft 378 kts 229°
2026-04-28 00:16 48.00546 -0.83679 19003 ft 372 kts 229°
2026-04-28 00:16 47.98828 -0.86544 18390 ft 368 kts 229°
2026-04-28 00:16 47.97134 -0.89366 17721 ft 363 kts 229°
2026-04-28 00:16 47.95455 -0.92157 17085 ft 358 kts 229°
2026-04-28 00:17 47.93805 -0.94895 16689 ft 348 kts 229°
2026-04-28 00:17 47.92195 -0.97560 16533 ft 346 kts 229°
2026-04-28 00:17 47.90583 -1.00243 16241 ft 347 kts 229°
2026-04-28 00:17 47.89517 -1.02016 16054 ft 346 kts 229°
2026-04-28 00:18 47.87369 -1.05579 15665 ft 344 kts 229°
2026-04-28 00:18 47.85768 -1.08225 15383 ft 343 kts 229°
2026-04-28 00:18 47.84175 -1.10851 15110 ft 342 kts 229°
2026-04-28 00:18 47.82579 -1.13475 14841 ft 340 kts 229°
2026-04-28 00:19 47.80994 -1.16076 14558 ft 339 kts 229°
2026-04-28 00:19 47.79412 -1.18664 14306 ft 338 kts 229°
2026-04-28 00:19 47.77827 -1.21251 14048 ft 338 kts 229°
2026-04-28 00:19 47.76247 -1.23822 13772 ft 336 kts 229°
2026-04-28 00:20 47.74665 -1.26388 13483 ft 336 kts 229°
2026-04-28 00:20 47.73093 -1.28935 13218 ft 335 kts 228°
2026-04-28 00:20 47.71525 -1.31539 12297 ft 343 kts 230°
2026-04-28 00:20 47.70035 -1.34155 12141 ft 330 kts 232°
2026-04-28 00:21 47.68592 -1.36848 12147 ft 330 kts 232°
2026-04-28 00:21 47.67170 -1.39490 12145 ft 332 kts 231°
2026-04-28 00:21 47.65703 -1.42128 12144 ft 332 kts 230°
2026-04-28 00:21 47.64213 -1.44715 12096 ft 321 kts 230°
2026-04-28 00:22 47.62823 -1.47050 11936 ft 299 kts 229°
2026-04-28 00:22 47.61919 -1.48520 11859 ft 289 kts 228°
2026-04-28 00:22 47.60050 -1.51495 11033 ft 297 kts 227°
2026-04-28 00:22 47.58639 -1.53731 10752 ft 295 kts 228°
2026-04-28 00:23 47.57178 -1.56060 10663 ft 322 kts 227°
2026-04-28 00:23 47.55624 -1.58557 9985 ft 335 kts 227°
2026-04-28 00:23 47.54043 -1.61119 9139 ft 334 kts 228°
2026-04-28 00:23 47.52544 -1.63590 8759 ft 311 kts 230°
2026-04-28 00:24 47.51185 -1.65979 8198 ft 297 kts 231°
2026-04-28 00:24 47.49896 -1.68291 7732 ft 285 kts 231°
2026-04-28 00:24 47.48677 -1.70485 7463 ft 266 kts 231°
2026-04-28 00:24 47.47542 -1.72527 7135 ft 257 kts 231°
2026-04-28 00:25 47.46407 -1.74568 7051 ft 257 kts 231°
2026-04-28 00:25 47.45269 -1.76611 7128 ft 257 kts 231°
2026-04-28 00:25 47.44139 -1.78640 7137 ft 256 kts 232°
2026-04-28 00:25 47.43173 -1.80832 7009 ft 255 kts 250°
2026-04-28 00:26 47.42766 -1.83372 6599 ft 255 kts 265°
2026-04-28 00:26 47.42583 -1.85956 6281 ft 251 kts 267°
2026-04-28 00:26 47.42425 -1.88501 5946 ft 248 kts 267°
2026-04-28 00:26 47.42262 -1.91031 5632 ft 246 kts 267°
2026-04-28 00:27 47.42094 -1.93530 5295 ft 244 kts 268°
2026-04-28 00:27 47.41922 -1.96016 4954 ft 243 kts 267°
2026-04-28 00:27 47.41747 -1.98488 4631 ft 240 kts 267°
2026-04-28 00:27 47.41575 -2.00854 4547 ft 223 kts 267°
2026-04-28 00:28 47.41324 -2.04229 3905 ft 206 kts 268°
2026-04-28 00:28 47.41147 -2.06736 3417 ft 194 kts 269°
2026-04-28 00:28 47.41025 -2.08703 2923 ft 189 kts 268°
2026-04-28 00:28 47.40921 -2.10605 2524 ft 181 kts 269°
2026-04-28 00:29 47.40820 -2.12416 2202 ft 173 kts 266°
2026-04-28 00:29 47.40639 -2.14127 1938 ft 163 kts 262°
2026-04-28 00:29 47.40398 -2.15712 1686 ft 154 kts 257°
2026-04-28 00:29 47.40186 -2.17228 1389 ft 148 kts 263°
2026-04-28 00:30 47.40028 -2.18682 1090 ft 140 kts 265°
2026-04-28 00:30 47.39914 -2.20065 799 ft 134 kts 258°
2026-04-28 00:30 47.39538 -2.21289 507 ft 127 kts 236°
2026-04-28 00:30 47.38981 -2.22442 673 ft 143 kts 232°
2026-04-28 00:31 47.38324 -2.23638 943 ft 159 kts 229°
2026-04-28 00:31 47.37598 -2.24858 1132 ft 162 kts 227°
2026-04-28 00:31 47.36842 -2.26081 1287 ft 151 kts 225°
2026-04-28 00:31 47.36056 -2.27005 1220 ft 145 kts 206°
2026-04-28 00:32 47.35081 -2.27537 1094 ft 154 kts 192°
2026-04-28 00:32 47.33994 -2.27800 963 ft 162 kts 178°
2026-04-28 00:32 47.32917 -2.27629 918 ft 150 kts 163°
2026-04-28 00:32 47.31962 -2.27061 841 ft 148 kts 146°
2026-04-28 00:33 47.31158 -2.26078 867 ft 154 kts 128°
2026-04-28 00:33 47.30532 -2.24771 913 ft 158 kts 116°
2026-04-28 00:33 47.30092 -2.23264 938 ft 161 kts 102°
2026-04-28 00:33 47.29974 -2.21613 916 ft 169 kts 88°
2026-04-28 00:34 47.30148 -2.19945 628 ft 158 kts 71°
2026-04-28 00:34 47.30501 -2.18451 331 ft 149 kts 72°
2026-04-28 00:34 47.30701 -2.17511 210 ft 145 kts 72°
2026-04-28 00:34 47.30992 -2.16047 39 ft 144 kts 73°
2026-04-28 00:35 47.31247 -2.14779 29 ft 98 kts 74°
2026-04-28 00:35 47.31353 -2.14264 26 ft 38 kts 73°
2026-04-28 00:35 47.31423 -2.13899 25 ft 35 kts 71°
2026-04-28 00:35 47.31491 -2.13576 28 ft 26 kts 70°
2026-04-28 00:36 47.31540 -2.13451 28 ft 8 kts 108°
2026-04-28 00:36 47.31505 -2.13485 26 ft 13 kts 248°
2026-04-28 00:36 47.31470 -2.13686 26 ft 27 kts 254°
2026-04-28 00:36 47.31406 -2.14003 24 ft 34 kts 253°
2026-04-28 00:37 47.31336 -2.14332 25 ft 33 kts 252°
2026-04-28 00:37 47.31272 -2.14659 29 ft 33 kts 253°
2026-04-28 00:37 47.31208 -2.14979 27 ft 32 kts 253°
2026-04-28 00:37 47.31146 -2.15296 27 ft 32 kts 254°
2026-04-28 00:38 47.31083 -2.15594 24 ft 28 kts 258°
2026-04-28 00:38 47.31152 -2.15716 25 ft 12 kts 343°
2026-04-28 00:38 47.31236 -2.15751 29 ft 14 kts 343°
2026-04-28 00:38 47.31305 -2.15819 27 ft 12 kts 308°
2026-04-28 00:39 47.31348 -2.15949 26 ft 9 kts 251°
2026-04-28 00:39 47.31343 -2.16066 25 ft 5 kts 316°
2026-04-28 00:39 47.31368 -2.16072 25 ft 5 kts 349°
2026-04-28 00:39 47.31395 -2.16083 29 ft 0 kts 342°